Regional Weather Roundup
Issued by NWS

Home | Current Version | Previous Version | Text Only | Print | Product List | Glossary On
Versions: 1 2 3 4 5 6 7 8 9 10 11 12 13 14 15 16 17 18 19 20 21 22 23 24 25 26 27 28 29 30 31 32 33 34 35 36 37 38 39 40 41 42 43 44 45 46 47 48 49 50
000
ASUS43 KLSX 031059
RWRMO

WEATHER SUMMARY FOR MISSOURI
NATIONAL WEATHER SERVICE SPRINGFIELD MO
600 AM CDT FRI JUL 03 2015

NOTE: "FAIR" INDICATES FEW OR NO CLOUDS BELOW 12,000 FEET WITH NO
       SIGNIFICANT WEATHER AND/OR OBSTRUCTIONS TO VISIBILITY.
       CURRENT SKY AND/OR WEATHER CONDITIONS ARE NOT AVAILABLE FOR
       CHILLICOTHE AND FARMINGTON.

MOZ001>031-035>038-043-044-053-054-031200-
...NORTHERN AND WESTERN MISSOURI...

CITY           SKY/WX    TMP DP  RH WIND       PRES   REMARKS
KANSAS CTY INT CLOUDY    65  62  90 NE8       29.93S
KANSAS C DTWN  CLOUDY    67  62  84 NE6       29.92S
LEE`S SUMMIT   CLOUDY    66  61  84 NE12      29.93S
ST JOSEPH      CLOUDY    64  59  83 NE5       29.95R
CHILLICOTHE      N/A     61  59  93 CALM      29.96R
KIRKSVILLE     PTCLDY    62  59  90 N5        29.95S

$$
MOZ066>068-077>081-088>096-101>105-031200-
...SOUTHWEST MISSOURI...

CITY           SKY/WX    TMP DP  RH WIND       PRES   REMARKS
SPRINGFIELD    CLOUDY    72  69  90 CALM      29.91R
JOPLIN         CLEAR     67  66  97 CALM      29.91R

$$
MOZ032>034-039>042-045>050-055>058-069>072-031200-
...CENTRAL MISSOURI...

CITY           SKY/WX    TMP DP  RH WIND       PRES   REMARKS
COLUMBIA       CLOUDY    66  61  84 NE6       29.93R
JEFFERSON CITY CLOUDY    67  62  84 NE3       29.92R
ROLLA          CLOUDY    65  62  90 NE5       29.91S
SEDALIA        CLOUDY    67  62  84 NE5       29.94R
OSAGE BEACH    CLOUDY    66  64  94 CALM      29.91S

$$
MOZ051-052-059>065-031200-
...EAST CENTRAL MISSOURI...

CITY           SKY/WX    TMP DP  RH WIND       PRES   REMARKS
ST LOUIS INTL  MOCLDY    67  62  84 N3        29.90S
SPIRIT OF STL  CLOUDY    67  64  90 W3        29.89S
ST CHARLES     CLOUDY    66  63  90 N7        29.89S

$$
MOZ072>076-082>087-097>100-106>115-031200-
...SOUTH CENTRAL AND SOUTHEAST MISSOURI...

CITY           SKY/WX    TMP DP  RH WIND       PRES   REMARKS
CAPE GIRARDEAU MOCLDY    70  68  93 N6        29.85R
FARMINGTON     CLOUDY    66  63  88 NW3       29.93F
POPLAR BLUFF   PTCLDY    70  68  93 CALM      29.86R
WEST PLAINS    MOCLDY    68  66  93 CALM      29.92R FOG

$$


USA.gov is the U.S. government's official web portal to all federal, state and local government web resources and services.